GW2963 Weather Reports


Display with metric or nautical units.
time (UTC)temp
F
wind
direction
speed
MPH
gust
MPH
rain 1hr
in
rain 24hr
in
rain mn
in
humidity
%
barometer
mb
20260506155502 61 265 2.0 4.0 0.00 0.00 0.00 78 1021.9
20260506153634 60 293 2.0 3.0 0.00 0.00 0.00 81 1021.8
20260506153132 60 248 1.0 2.0 0.00 0.00 0.00 81 1021.9
20260506152628 59 258 2.0 3.0 0.00 0.00 0.00 82 1021.9
20260506152126 59 283 1.0 1.0 0.00 0.00 0.00 83 1021.7
20260506151625 59 232 2.0 2.0 0.00 0.00 0.00 83 1021.6
20260506151121 58 285 2.0 3.0 0.00 0.00 0.00 85 1021.6
20260506150618 58 260 2.0 3.0 0.00 0.00 0.00 85 1021.6
20260506150115 58 263 2.0 3.0 0.00 0.00 0.00 85 1021.8
20260506145612 58 273 2.0 2.0 0.00 0.00 0.00 86 1021.6
20260506145109 57 283 3.0 3.0 0.00 0.00 0.00 86 1021.7
20260506144606 57 230 2.0 2.0 0.00 0.00 0.00 87 1021.8
20260506144102 57 294 1.0 1.0 0.00 0.00 0.00 86 1021.7
20260506143601 57 239 2.0 2.0 0.00 0.00 0.00 87 1021.5
20260506143058 57 275 2.0 3.0 0.00 0.00 0.00 87 1021.5
20260506142556 57 268 3.0 4.0 0.00 0.00 0.00 87 1021.6
20260506142054 57 297 2.0 2.0 0.00 0.00 0.00 87 1021.6
20260506141551 57 357 0.0 1.0 0.00 0.00 0.00 88 1021.5
20260506141050 57 350 1.0 1.0 0.00 0.00 0.00 88 1021.4
20260506140547 56 292 1.0 2.0 0.00 0.00 0.00 88 1021.2
20260506140044 56 348 0.0 0.0 0.00 0.00 0.00 89 1021.1
20260506135541 56 348 0.0 0.0 0.00 0.00 0.00 89 1021.1
20260506135037 56 353 0.0 0.0 0.00 0.00 0.00 89 1021.1
20260506134534 56 23 0.0 0.0 0.00 0.00 0.00 89 1021.1
20260506134029 56 349 0.0 1.0 0.00 0.00 0.00 89 1020.9
20260506133527 56 273 1.0 1.0 0.00 0.00 0.00 89 1021.0
20260506133024 56 346 0.0 0.0 0.00 0.00 0.00 89 1021.0
20260506132521 56 320 0.0 0.0 0.00 0.00 0.00 90 1020.9
20260506132018 56 329 0.0 0.0 0.00 0.00 0.00 90 1021.1
20260506131515 56 2 0.0 0.0 0.00 0.00 0.00 90 1021.0
20260506131012 56 353 0.0 0.0 0.00 0.00 0.00 90 1020.9
20260506130508 56 347 0.0 0.0 0.00 0.00 0.00 90 1020.8
20260506130006 56 323 1.0 1.0 0.00 0.00 0.00 90 1020.9
20260506125504 56 332 1.0 1.0 0.00 0.00 0.00 90 1020.9
20260506125001 56 273 2.0 3.0 0.00 0.00 0.00 90 1020.8
20260506124459 56 322 2.0 2.0 0.00 0.00 0.00 90 1020.7
20260506123957 56 316 1.0 1.0 0.00 0.00 0.00 90 1020.8
20260506123455 55 309 1.0 2.0 0.00 0.00 0.00 90 1020.7
20260506122952 56 269 3.0 3.0 0.00 0.00 0.00 90 1020.8
20260506122449 56 343 1.0 1.0 0.00 0.00 0.00 90 1020.7
20260506121947 56 341 0.0 1.0 0.00 0.00 0.00 90 1020.7
20260506121444 56 350 0.0 0.0 0.00 0.00 0.00 90 1020.7
20260506120940 56 293 2.0 2.0 0.00 0.00 0.00 90 1020.5
20260506120438 55 356 1.0 1.0 0.00 0.00 0.00 90 1020.6
20260506115935 55 352 0.0 0.0 0.00 0.00 0.00 90 1020.7
20260506115433 55 284 1.0 2.0 0.00 0.00 0.00 90 1020.7
20260506114931 55 33 1.0 2.0 0.00 0.00 0.00 90 1020.5
20260506114429 56 318 2.0 2.0 0.00 0.00 0.00 90 1020.5
20260506113927 56 349 0.0 0.0 0.00 0.00 0.00 90 1020.6
20260506113424 56 339 0.0 1.0 0.00 0.00 0.00 90 1020.4
20260506112915 55 308 0.0 1.0 0.00 0.00 0.00 90 1020.4
20260506112413 56 342 1.0 1.0 0.00 0.00 0.00 90 1020.6
20260506111910 56 311 1.0 1.0 0.00 0.00 0.00 90 1020.4
20260506111408 56 21 1.0 1.0 0.00 0.00 0.00 90 1020.2
20260506110905 56 3 0.0 0.0 0.00 0.00 0.00 90 1020.3
20260506110402 56 351 0.0 0.0 0.00 0.00 0.00 90 1020.4
20260506105859 56 6 0.0 0.0 0.00 0.00 0.00 90 1020.3
20260506105355 56 13 0.0 0.0 0.00 0.00 0.00 90 1020.2
20260506104853 56 357 0.0 0.0 0.00 0.00 0.00 90 1020.1
20260506104350 56 13 0.0 0.0 0.00 0.00 0.00 89 1020.2
20260506103848 56 250 1.0 1.0 0.00 0.00 0.00 89 1020.0
20260506103345 56 7 1.0 1.0 0.00 0.00 0.00 89 1020.1
20260506102842 56 294 3.0 3.0 0.00 0.00 0.00 90 1020.1
20260506102340 55 308 2.0 2.0 0.00 0.00 0.00 90 1019.9
20260506101837 56 337 1.0 1.0 0.00 0.00 0.00 90 1020.1
20260506101333 56 359 0.0 0.0 0.00 0.00 0.00 90 1019.9
20260506100831 56 17 0.0 0.0 0.00 0.00 0.00 90 1020.0
20260506100329 56 21 0.0 1.0 0.00 0.00 0.00 90 1019.9
20260506095827 56 8 1.0 1.0 0.00 0.00 0.00 90 1019.9
20260506095324 56 353 0.0 0.0 0.00 0.00 0.00 90 1020.1
20260506094821 56 15 0.0 0.0 0.00 0.00 0.00 90 1020.0
20260506094320 56 16 0.0 0.0 0.00 0.00 0.00 90 1020.0
20260506093818 56 22 0.0 0.0 0.00 0.00 0.00 90 1020.1
20260506093314 55 302 1.0 2.0 0.00 0.00 0.00 90 1019.9
20260506092812 55 316 0.0 0.0 0.00 0.00 0.00 90 1020.0
20260506092310 55 20 0.0 0.0 0.00 0.00 0.00 90 1020.0
20260506091807 55 12 1.0 1.0 0.00 0.00 0.00 90 1020.3
20260506091304 55 19 2.0 2.0 0.00 0.00 0.00 90 1020.1
20260506090802 55 11 0.0 0.0 0.00 0.00 0.00 90 1020.1
20260506090259 55 31 0.0 1.0 0.00 0.00 0.00 90 1020.1
20260506085755 55 348 1.0 1.0 0.00 0.00 0.00 90 1020.2
20260506085252 55 19 0.0 0.0 0.00 0.00 0.00 90 1020.1
20260506084748 55 317 1.0 2.0 0.00 0.00 0.00 90 1020.2
20260506084245 55 354 0.0 0.0 0.00 0.00 0.00 90 1020.0
20260506083742 55 15 2.0 3.0 0.00 0.00 0.00 89 1020.2
20260506083240 55 5 0.0 0.0 0.00 0.00 0.00 89 1020.1
20260506082737 55 306 2.0 2.0 0.00 0.00 0.00 89 1020.1
20260506082232 56 294 2.0 2.0 0.00 0.00 0.00 89 1020.1
20260506081730 56 18 1.0 1.0 0.00 0.00 0.00 89 1020.3
20260506081227 56 19 0.0 0.0 0.00 0.00 0.00 89 1020.2
20260506080726 56 351 0.0 0.0 0.00 0.00 0.00 89 1020.1
20260506080221 56 9 0.0 1.0 0.00 0.00 0.00 89 1020.1
20260506073206 56 27 0.0 0.0 0.00 0.00 0.00 89 1019.7
20260506072702 56 314 2.0 3.0 0.00 0.00 0.00 89 1019.7
20260506072200 56 14 0.0 0.0 0.00 0.00 0.00 89 1019.7
20260506071657 56 14 1.0 2.0 0.00 0.00 0.00 89 1019.6
20260506071155 56 28 0.0 0.0 0.00 0.00 0.00 89 1019.9
20260506070652 56 24 1.0 1.0 0.00 0.00 0.00 89 1019.7
20260506070148 56 354 0.0 0.0 0.00 0.00 0.00 89 1019.7
20260506062126 56 338 1.0 1.0 0.00 0.00 0.00 90 1019.7
20260506061621 55 4 0.0 0.0 0.00 0.00 0.00 90 1019.4
20260506061120 56 11 0.0 0.0 0.00 0.00 0.00 89 1019.4
20260506060618 56 13 0.0 0.0 0.00 0.00 0.00 89 1019.5
20260506060114 56 25 0.0 0.0 0.00 0.00 0.00 89 1019.3
20260506051046 56 341 1.0 1.0 0.00 0.00 0.00 86 1019.3
20260506050544 56 292 2.0 2.0 0.00 0.00 0.00 87 1019.1
20260506045035 56 330 2.0 4.0 0.00 0.00 0.00 86 1018.9
20260506044533 57 351 0.0 0.0 0.00 0.00 0.00 87 1018.8
20260506044029 57 16 0.0 0.0 0.00 0.00 0.00 87 1018.6
20260506043526 57 1 1.0 1.0 0.00 0.00 0.00 87 1018.8
20260506043025 57 356 1.0 1.0 0.00 0.00 0.00 87 1018.6
20260506042523 57 323 2.0 2.0 0.00 0.00 0.00 87 1018.8
20260506042021 57 10 3.0 6.0 0.00 0.00 0.00 87 1018.5
20260506041520 57 264 1.0 1.0 0.00 0.00 0.00 86 1018.5
20260506041016 57 340 1.0 1.0 0.00 0.00 0.00 86 1018.3
20260506040514 57 318 1.0 1.0 0.00 0.00 0.00 86 1018.3
20260506040009 57 284 1.0 3.0 0.00 0.00 0.00 85 1018.4
20260506035507 57 283 2.0 3.0 0.00 0.00 0.00 84 1018.2
20260506035003 57 309 2.0 4.0 0.00 0.00 0.00 84 1018.4
20260506034501 57 343 1.0 2.0 0.00 0.00 0.00 84 1018.2
20260506033957 57 269 2.0 2.0 0.00 0.00 0.00 83 1018.0
20260506033455 57 302 2.0 3.0 0.00 0.00 0.00 83 1017.9
20260506032951 57 279 2.0 3.0 0.00 0.00 0.00 82 1017.9
20260506032449 57 310 4.0 4.0 0.00 0.00 0.00 82 1017.6
20260506031945 58 304 5.0 7.0 0.00 0.00 0.00 82 1017.7
20260506031443 58 283 2.0 4.0 0.00 0.00 0.00 81 1017.6
20260506030940 58 285 2.0 3.0 0.00 0.00 0.00 81 1017.4
20260506030438 58 320 2.0 3.0 0.00 0.00 0.00 82 1017.6
20260506025935 58 300 3.0 3.0 0.00 0.00 0.00 81 1017.6
20260506025432 58 267 1.0 2.0 0.00 0.00 0.00 81 1017.4
20260506024928 58 326 1.0 1.0 0.00 0.00 0.00 80 1017.2
20260506024425 58 284 6.0 8.0 0.00 0.00 0.00 80 1017.4
20260506023921 58 295 1.0 1.0 0.00 0.00 0.00 80 1017.4
20260506023418 59 279 1.0 2.0 0.00 0.00 0.00 80 1017.4
20260506022915 59 290 4.0 7.0 0.00 0.00 0.00 79 1017.2
20260506022413 59 301 5.0 7.0 0.00 0.00 0.00 79 1017.1
20260506021910 59 343 6.0 9.0 0.00 0.00 0.00 78 1017.1
20260506021407 59 7 1.0 2.0 0.00 0.00 0.00 79 1017.0
20260506020904 59 252 3.0 4.0 0.00 0.00 0.00 78 1017.1
20260506020402 59 281 6.0 9.0 0.00 0.00 0.00 78 1017.1
20260506015859 60 288 6.0 8.0 0.00 0.00 0.00 77 1017.0
20260506015356 60 248 6.0 8.0 0.00 0.00 0.00 77 1017.0
20260506014853 60 339 3.0 6.0 0.00 0.00 0.00 77 1016.7
20260506014350 60 315 4.0 4.0 0.00 0.00 0.00 76 1016.8
20260506013847 60 350 0.0 1.0 0.00 0.00 0.00 77 1016.7
20260506013344 60 262 5.0 7.0 0.00 0.00 0.00 77 1016.9
20260506012840 60 276 3.0 3.0 0.00 0.00 0.00 77 1016.8
20260506012338 60 250 8.0 11.0 0.00 0.00 0.00 77 1016.9
20260506011835 60 313 4.0 7.0 0.00 0.00 0.00 77 1017.0
20260506011331 60 288 4.0 6.0 0.00 0.00 0.00 77 1016.9
20260506010829 61 322 7.0 9.0 0.00 0.00 0.00 76 1016.9
20260506010327 61 287 4.0 4.0 0.00 0.00 0.00 76 1016.8
20260506005823 61 4 6.0 9.0 0.00 0.00 0.00 76 1016.8
20260506005320 61 288 5.0 9.0 0.00 0.00 0.00 76 1016.8
20260506004816 61 285 6.0 7.0 0.00 0.00 0.00 75 1016.7
20260506004314 62 229 3.0 3.0 0.00 0.00 0.00 75 1016.7
20260506003810 62 346 4.0 6.0 0.00 0.00 0.00 75 1016.7
20260506003306 62 252 7.0 14.0 0.00 0.00 0.00 74 1016.5
20260506002803 63 289 4.0 6.0 0.00 0.00 0.00 73 1016.6
20260506002259 63 277 5.0 7.0 0.00 0.00 0.00 73 1016.4
20260506001755 63 6 4.0 6.0 0.00 0.00 0.00 73 1016.5
20260506001252 63 15 4.0 6.0 0.00 0.00 0.00 73 1016.4
20260506000749 63 274 2.0 3.0 0.00 0.00 0.00 73 1016.4
20260506000247 64 264 7.0 9.0 0.00 0.00 0.00 71 1016.3
20260505235743 65 247 6.0 9.0 0.00 0.00 0.00 71 1016.4
20260505235241 64 357 4.0 7.0 0.00 0.00 0.00 71 1016.5
20260505234738 65 277 9.0 10.0 0.00 0.00 0.00 70 1016.4
20260505234235 64 317 4.0 6.0 0.00 0.00 0.00 71 1016.5
20260505233732 65 289 6.0 10.0 0.00 0.00 0.00 71 1016.3
20260505233230 66 272 6.0 9.0 0.00 0.00 0.00 69 1016.5
20260505232727 65 226 6.0 8.0 0.00 0.00 0.00 69 1016.3
20260505232224 66 291 5.0 8.0 0.00 0.00 0.00 69 1016.4
20260505231721 67 16 1.0 1.0 0.00 0.00 0.00 68 1016.2
20260505231220 68 296 2.0 3.0 0.00 0.00 0.00 66 1016.2
20260505230717 67 296 5.0 7.0 0.00 0.00 0.00 68 1016.2
20260505230214 67 286 7.0 9.0 0.00 0.00 0.00 66 1016.1
20260505225710 67 304 3.0 6.0 0.00 0.00 0.00 68 1016.3
20260505225207 66 227 4.0 6.0 0.00 0.00 0.00 68 1016.2
20260505224703 66 286 5.0 7.0 0.00 0.00 0.00 68 1016.3
20260505224201 66 213 2.0 6.0 0.00 0.00 0.00 69 1016.2
20260505223658 66 258 3.0 4.0 0.00 0.00 0.00 69 1016.2
20260505223154 66 284 6.0 9.0 0.00 0.00 0.00 68 1016.3
20260505222650 66 284 2.0 3.0 0.00 0.00 0.00 68 1016.3
20260505222147 67 8 3.0 6.0 0.00 0.00 0.00 69 1016.3
20260505221644 67 21 0.0 0.0 0.00 0.00 0.00 68 1016.4
20260505221140 67 250 6.0 8.0 0.00 0.00 0.00 67 1016.4
20260505220638 68 280 5.0 7.0 0.00 0.00 0.00 66 1016.3
20260505220135 67 356 4.0 6.0 0.00 0.00 0.00 67 1016.5
20260505215632 66 250 3.0 4.0 0.00 0.00 0.00 68 1016.3
20260505215131 66 246 2.0 3.0 0.00 0.00 0.00 69 1016.4
20260505214629 67 282 3.0 3.0 0.00 0.00 0.00 67 1016.4
20260505214125 66 249 3.0 4.0 0.00 0.00 0.00 68 1016.4
20260505213623 68 318 3.0 3.0 0.00 0.00 0.00 67 1016.6
20260505213119 66 354 0.0 2.0 0.00 0.00 0.00 68 1016.6
20260505212615 66 282 4.0 8.0 0.00 0.00 0.00 68 1016.5
20260505212113 66 310 1.0 1.0 0.00 0.00 0.00 71 1016.7
20260505211610 65 268 3.0 3.0 0.00 0.00 0.00 70 1016.6
20260505211107 65 9 1.0 2.0 0.00 0.00 0.00 72 1016.6
20260505210603 66 296 3.0 6.0 0.00 0.00 0.00 71 1016.6
20260505210100 65 264 2.0 3.0 0.00 0.00 0.00 71 1016.6
20260505205558 66 353 1.0 1.0 0.00 0.00 0.00 70 1016.6
20260505205055 65 282 1.0 1.0 0.00 0.00 0.00 71 1016.6
20260505204552 65 279 4.0 4.0 0.00 0.00 0.00 70 1016.7
20260505204050 65 274 3.0 4.0 0.00 0.00 0.00 70 1016.5
20260505203546 65 255 2.0 3.0 0.00 0.00 0.00 70 1016.6
20260505203044 65 267 4.0 6.0 0.00 0.00 0.00 71 1016.7
20260505202539 65 272 3.0 7.0 0.00 0.00 0.00 70 1016.5
20260505202035 65 349 2.0 4.0 0.00 0.00 0.00 71 1016.6
20260505201533 66 278 5.0 6.0 0.00 0.00 0.00 69 1016.6
20260505201030 66 296 5.0 7.0 0.00 0.00 0.00 70 1016.5
20260505200528 65 357 2.0 3.0 0.00 0.00 0.00 71 1016.7
20260505200025 66 300 4.0 6.0 0.00 0.00 0.00 70 1016.8
20260505195520 67 273 5.0 7.0 0.00 0.00 0.00 68 1016.8
20260505195018 65 291 2.0 3.0 0.00 0.00 0.00 70 1017.1
20260505194515 65 222 2.0 2.0 0.00 0.00 0.00 72 1016.9
20260505194010 64 242 6.0 9.0 0.00 0.00 0.00 72 1016.8
20260505193508 63 309 3.0 3.0 0.00 0.00 0.00 75 1017.0
20260505193005 63 265 4.0 8.0 0.00 0.00 0.00 75 1016.9
20260505192504 63 303 6.0 9.0 0.00 0.00 0.00 75 1017.0
20260505192001 63 275 5.0 6.0 0.00 0.00 0.00 75 1016.8
20260505191459 62 262 4.0 6.0 0.00 0.00 0.00 76 1017.1
20260505190956 62 267 6.0 8.0 0.00 0.00 0.00 75 1017.0
20260505190451 62 231 3.0 4.0 0.00 0.00 0.00 76 1016.9
20260505185947 63 274 3.0 4.0 0.00 0.00 0.00 75 1016.7
20260505185444 63 274 6.0 8.0 0.00 0.00 0.00 75 1016.9
20260505184940 65 244 6.0 8.0 0.00 0.00 0.00 73 1016.7
20260505184437 64 238 2.0 3.0 0.00 0.00 0.00 73 1016.6
20260505183933 63 10 2.0 3.0 0.00 0.00 0.00 74 1016.9
20260505183431 63 311 2.0 2.0 0.00 0.00 0.00 75 1016.7
20260505182927 62 7 4.0 7.0 0.00 0.00 0.00 76 1016.8
20260505182425 61 263 4.0 6.0 0.00 0.00 0.00 76 1016.8
20260505181920 61 294 1.0 2.0 0.00 0.00 0.00 78 1016.8
20260505181418 61 356 2.0 2.0 0.00 0.00 0.00 79 1016.8
20260505180915 61 268 1.0 2.0 0.00 0.00 0.00 78 1016.7
20260505180411 61 270 1.0 1.0 0.00 0.00 0.00 78 1016.4
20260505175908 61 342 1.0 1.0 0.00 0.00 0.00 77 1016.6
20260505175404 61 246 1.0 2.0 0.00 0.00 0.00 77 1016.7
20260505174901 61 283 3.0 3.0 0.00 0.00 0.00 77 1016.6
20260505174358 60 273 6.0 8.0 0.00 0.00 0.00 78 1016.5
20260505173854 60 229 4.0 7.0 0.00 0.00 0.00 79 1016.4
20260505173351 60 282 5.0 6.0 0.00 0.00 0.00 79 1016.5
20260505172848 60 206 4.0 6.0 0.00 0.00 0.00 80 1016.4
20260505172346 60 263 1.0 2.0 0.00 0.00 0.00 82 1016.4
20260505171845 59 287 3.0 3.0 0.00 0.00 0.00 83 1016.4
20260505171342 59 257 2.0 3.0 0.00 0.00 0.00 83 1016.2
20260505170839 59 310 5.0 7.0 0.00 0.00 0.00 84 1016.3
20260505170336 58 293 3.0 4.0 0.00 0.00 0.00 85 1016.5
20260505165831 58 288 5.0 6.0 0.00 0.00 0.00 84 1016.6
20260505165327 58 298 4.0 7.0 0.00 0.00 0.00 84 1016.6
20260505164822 58 320 4.0 7.0 0.00 0.00 0.00 85 1016.5
20260505164320 58 294 2.0 4.0 0.00 0.00 0.00 85 1016.3
20260505163818 58 296 5.0 8.0 0.00 0.00 0.00 84 1016.3
20260505163316 58 268 3.0 4.0 0.00 0.00 0.00 84 1016.5
20260505162814 58 265 3.0 4.0 0.00 0.00 0.00 84 1016.3
20260505162310 59 284 4.0 8.0 0.00 0.00 0.00 84 1016.2
20260505161808 58 301 4.0 4.0 0.00 0.00 0.00 85 1016.2
20260505161305 58 6 0.0 1.0 0.00 0.00 0.00 86 1016.3
20260505160802 58 230 2.0 3.0 0.00 0.00 0.00 86 1016.2
20260505160300 57 12 4.0 4.0 0.00 0.00 0.00 87 1016.2